Stations météo

Publicité
Tholey, Allemagne (10706): Température de l'air & dewpoint: 16.09.2018 05:00:00 - 22.09.2018 05:00:00 (CEST)Tholey, Allemagne (10706): Température de l'air 5cm & Température de l'air -5cm: 16.09.2018 05:00:00 - 22.09.2018 05:00:00 (CEST)Tholey, Allemagne (10706): Température de l'air -20cm & Température de l'air -100cm: 16.09.2018 05:00:00 - 22.09.2018 05:00:00 (CEST)Tholey, Allemagne (10706): Vitesse du vent & gusts: 16.09.2018 05:00:00 - 22.09.2018 05:00:00 (CEST)Tholey, Allemagne (10706): Direction du vent: 16.09.2018 05:00:00 - 22.09.2018 05:00:00 (CEST)Tholey, Allemagne (10706): reduced air pressure: 16.09.2018 05:00:00 - 22.09.2018 05:00:00 (CEST)Tholey, Allemagne (10706): visibility: 16.09.2018 05:00:00 - 22.09.2018 05:00:00 (CEST)Tholey, Allemagne (10706): Ensoleillement: 16.09.2018 05:00:00 - 22.09.2018 05:00:00 (CEST)Tholey, Allemagne (10706): Quantités de précipitations: 16.09.2018 05:00:00 - 22.09.2018 05:00:00 (CEST)
Date & Time tt [°C] td [°C] tt 5cm [°C] tt -5cm [°C] tt -20cm [°C] tt -100cm [°C] ff [km/h] ff [knt] fx [km/h] fx [knt] dd ppp [hPa] vv [km] sd [min] rr [mm]
22.09.2018 05:00:00 - - - - - - - - - - - - - - -
22.09.2018 04:00:00 7,9 4,4 6,8 9,7 16,5 18,3 16 9 23 12 W 1022,8 70 0 0,0
22.09.2018 03:00:00 8,3 4,5 7,1 9,9 16,8 18,3 18 10 25 13 W 1022,6 70 0 0,0
22.09.2018 02:00:00 8,8 4,7 7,5 10,4 17,1 18,3 18 10 32 17 W 1021,9 70 0 0,0
22.09.2018 01:00:00 9,6 4,6 8,0 10,9 17,4 18,3 16 9 24 13 W 1021,4 70 0 0,0
22.09.2018 00:00:00 10,4 4,7 9,2 11,6 17,7 18,3 18 10 26 14 W 1020,9 70 0 0,0
21.09.2018 23:00:00 10,5 5,2 9,3 12,0 18,0 18,3 11 6 26 14 WSW 1020,4 70 0 0,0
21.09.2018 22:00:00 10,6 5,6 9,5 12,2 18,4 18,3 18 10 25 13 W 1019,4 70 0 0,0
21.09.2018 21:00:00 11,6 5,5 9,9 12,8 18,7 18,2 15 8 28 15 W 1018,4 70 0 0,0
21.09.2018 20:00:00 12,2 6,0 10,8 13,9 18,9 18,2 17 9 32 17 W 1017,0 70 0 0,0
21.09.2018 19:00:00 13,0 6,5 12,1 15,3 19,1 18,2 21 11 41 22 W 1015,5 70 7 0,0
21.09.2018 18:00:00 13,7 11,3 13,9 16,8 19,2 18,2 18 10 27 14 WSW 1014,4 41 15 0,0
21.09.2018 17:00:00 12,3 11,4 13,0 16,6 19,4 18,2 17 9 31 17 WSW 1013,8 19 0 0,0
21.09.2018 16:00:00 11,5 11,0 12,3 16,2 19,6 18,2 13 7 39 21 W 1013,3 24 0 1,3
21.09.2018 15:00:00 11,4 9,7 11,2 16,9 19,8 18,2 27 15 64 35 W 1012,5 59 0 1,6
21.09.2018 14:00:00 16,0 14,6 15,5 19,0 19,7 18,2 30 16 58 32 WSW 1010,4 7 0 0,6
21.09.2018 13:00:00 18,0 12,7 16,3 20,4 19,6 18,2 42 23 59 32 WSW 1009,8 13 0 0,0
21.09.2018 12:00:00 20,0 11,0 21,7 20,8 19,5 18,2 37 20 63 34 WSW 1009,1 27 7 0,0
21.09.2018 11:00:00 19,4 10,9 20,0 19,8 19,5 18,2 35 19 49 27 WSW 1009,8 28 9 0,0
21.09.2018 10:00:00 18,6 12,8 19,9 18,9 19,5 18,2 24 13 34 18 WSW 1009,6 24 10 0,0
21.09.2018 09:00:00 16,9 12,7 17,3 17,6 19,7 18,2 15 8 21 12 WSW 1010,2 23 2 0,0
21.09.2018 08:00:00 17,3 12,4 16,7 16,8 19,9 18,2 10 5 14 8 SW 1009,7 26 0 0,0
21.09.2018 07:00:00 17,0 12,3 14,4 17,1 20,0 18,2 7 4 17 9 WSW 1009,9 26 0 0,0
21.09.2018 06:00:00 17,6 12,3 16,1 17,3 20,2 18,2 11 6 16 9 WSW 1010,3 28 0 0,0
21.09.2018 05:00:00 17,9 12,4 16,0 17,3 20,5 18,2 11 6 14 8 W 1011,0 24 0 0,0
21.09.2018 04:00:00 18,0 12,5 14,4 17,6 20,7 18,2 5 3 14 8 W 1011,5 32 0 0,0
21.09.2018 03:00:00 18,5 12,6 15,6 18,1 20,9 18,2 8 4 15 8 WSW 1012,1 32 0 0,0
21.09.2018 02:00:00 19,8 12,7 17,3 18,6 21,2 18,2 6 3 11 6 SW 1012,3 34 0 0,0
21.09.2018 01:00:00 19,4 13,0 17,2 19,1 21,4 18,2 8 5 16 8 SSW 1012,8 34 0 0,0
21.09.2018 00:00:00 20,1 13,2 18,0 19,5 21,7 18,2 10 5 17 9 SSW 1013,3 34 0 0,0
20.09.2018 23:00:00 20,1 13,0 17,7 20,0 22,0 18,2 8 4 12 7 S 1013,9 38 0 0,0
20.09.2018 22:00:00 20,7 12,7 17,5 20,8 22,2 18,1 7 4 11 6 SSW 1014,3 45 0 0,0
20.09.2018 21:00:00 21,3 12,1 17,2 21,9 22,4 18,1 7 4 11 6 SSW 1014,6 39 0 0,0
20.09.2018 20:00:00 22,3 11,9 19,4 23,6 22,5 18,1 8 4 17 9 WSW 1014,8 35 7 0,0
20.09.2018 19:00:00 23,7 11,3 23,0 25,7 22,4 18,1 13 7 25 13 SW 1015,0 47 60 0,0
20.09.2018 18:00:00 24,5 11,1 25,7 27,7 22,1 18,1 20 11 30 16 WSW 1015,5 32 60 0,0
20.09.2018 17:00:00 24,6 11,2 27,4 29,2 21,7 18,1 18 10 35 19 WSW 1016,1 17 60 0,0
20.09.2018 16:00:00 24,8 10,9 29,4 29,6 21,2 18,1 17 9 35 19 WSW 1016,7 19 60 0,0
20.09.2018 15:00:00 24,9 11,2 30,1 29,5 20,7 18,1 20 11 33 18 SW 1017,2 22 60 0,0
20.09.2018 14:00:00 23,4 11,5 28,2 28,6 20,2 18,1 21 11 35 19 W 1018,1 22 60 0,0
20.09.2018 13:00:00 22,0 12,0 27,5 27,1 19,7 18,1 21 12 33 18 W 1018,9 11 60 0,0
20.09.2018 12:00:00 21,7 12,5 27,4 24,9 19,4 18,1 18 10 24 13 WSW 1019,3 20 60 0,0
20.09.2018 11:00:00 19,5 12,7 24,2 22,2 19,3 18,1 12 7 19 10 WSW 1020,1 24 60 0,0
20.09.2018 10:00:00 17,5 12,9 20,9 19,3 19,3 18,1 7 4 9 5 WSW 1020,1 26 60 0,0
20.09.2018 09:00:00 16,1 12,9 17,4 16,8 19,5 18,1 7 4 10 5 W 1020,3 10 56 0,0
20.09.2018 08:00:00 15,4 13,3 11,1 15,4 19,8 18,1 3 2 4 2 W 1020,2 15 0 0,0
20.09.2018 07:00:00 14,4 13,4 11,1 15,7 20,1 18,1 4 2 5 3 E 1020,3 13 0 0,0
20.09.2018 06:00:00 14,9 13,5 11,0 16,2 20,3 18,1 4 2 5 3 WSW 1020,2 15 0 0,0
20.09.2018 05:00:00 16,0 13,6 11,9 16,8 20,6 18,1 4 2 6 3 WSW 1020,0 21 0 0,0
20.09.2018 04:00:00 17,2 13,3 13,0 17,3 20,9 18,1 6 3 7 4 W 1019,6 24 0 0,0
20.09.2018 03:00:00 17,3 13,5 13,5 17,8 21,2 18,0 4 2 8 4 WSW 1019,7 22 0 0,0
20.09.2018 02:00:00 17,9 13,9 13,9 18,4 21,5 18,0 7 4 8 4 W 1019,9 27 0 0,0
20.09.2018 01:00:00 18,2 14,1 14,7 19,1 21,7 18,0 6 4 9 5 W 1020,1 27 0 0,0
20.09.2018 00:00:00 19,4 14,1 15,2 19,9 22,0 18,0 4 2 6 3 WSW 1019,7 31 0 0,0
19.09.2018 23:00:00 19,8 14,2 16,2 20,8 22,3 18,0 5 3 10 6 WSW 1019,5 33 0 0,0
19.09.2018 22:00:00 21,3 14,3 17,2 21,7 22,5 18,0 6 4 11 6 W 1018,9 33 0 0,0
19.09.2018 21:00:00 22,0 14,1 18,9 22,9 22,7 18,0 8 4 16 9 W 1018,6 39 0 0,0
19.09.2018 20:00:00 23,3 14,0 21,6 24,5 22,8 18,0 12 7 23 12 W 1018,2 39 24 0,0
19.09.2018 19:00:00 25,0 13,7 24,3 26,3 22,7 18,0 19 11 35 19 W 1017,6 52 60 0,0
19.09.2018 18:00:00 26,0 13,4 27,2 28,0 22,4 18,0 23 13 38 20 WSW 1017,3 43 50 0,0
19.09.2018 17:00:00 26,4 13,2 29,0 29,4 22,1 18,0 19 11 37 20 W 1017,4 31 51 0,0
19.09.2018 16:00:00 26,6 12,7 30,7 30,3 21,6 18,0 29 16 41 22 SW 1017,6 25 49 0,0
19.09.2018 15:00:00 26,1 12,3 30,1 30,7 21,0 18,0 26 14 40 21 WSW 1018,0 31 59 0,0
19.09.2018 14:00:00 25,7 13,2 31,0 29,8 20,5 18,0 19 11 31 17 WSW 1018,3 26 60 0,0
19.09.2018 13:00:00 24,4 14,0 30,1 28,2 20,0 18,0 16 9 27 15 SW 1018,9 24 60 0,0
19.09.2018 12:00:00 22,6 13,9 28,3 25,9 19,7 18,0 15 8 23 13 WSW 1019,7 25 60 0,0
19.09.2018 11:00:00 21,1 14,0 25,1 23,0 19,5 18,0 7 4 12 7 WSW 1019,7 29 60 0,0
19.09.2018 10:00:00 19,3 13,2 22,3 20,0 19,6 18,0 5 3 6 4 WSW 1019,7 24 60 0,0
19.09.2018 09:00:00 17,7 12,5 18,7 17,7 19,7 18,0 4 2 5 3 W 1019,6 26 60 0,0
19.09.2018 08:00:00 16,4 12,6 14,2 16,5 20,0 18,0 3 2 7 4 SSW 1019,4 30 5 0,0
19.09.2018 07:00:00 15,4 12,0 13,2 16,7 20,3 18,0 6 4 8 4 E 1019,4 32 0 0,0
19.09.2018 06:00:00 15,5 12,1 12,3 17,2 20,5 18,0 4 2 9 5 SSE 1019,0 35 0 0,0
19.09.2018 05:00:00 17,2 12,2 13,2 17,7 20,8 18,0 5 3 6 4 SW 1018,7 29 0 0,0
19.09.2018 04:00:00 18,1 12,2 14,5 18,5 21,0 18,0 5 3 9 5 W 1018,5 41 0 0,0
19.09.2018 03:00:00 18,5 12,0 16,3 19,0 21,3 18,0 8 4 10 6 W 1018,2 53 0 0,0
19.09.2018 02:00:00 18,9 12,0 16,2 19,6 21,5 18,0 5 3 10 5 W 1017,9 62 0 0,0
19.09.2018 01:00:00 19,6 11,9 17,4 20,4 21,8 18,0 8 4 13 7 WSW 1017,5 66 0 0,0
19.09.2018 00:00:00 19,6 11,7 18,6 21,0 22,0 18,0 11 6 20 11 W 1017,4 64 0 0,0
18.09.2018 23:00:00 20,9 11,3 19,1 21,7 22,2 18,0 11 6 16 9 W 1016,8 70 0 0,0
18.09.2018 22:00:00 22,1 10,8 20,5 22,7 22,4 18,0 11 6 29 15 W 1016,4 70 0 0,0
18.09.2018 21:00:00 24,3 10,2 22,8 24,1 22,5 18,0 19 10 29 16 WNW 1015,5 70 0 0,0
18.09.2018 20:00:00 25,3 11,9 23,1 26,2 22,4 18,0 9 5 26 14 W 1014,8 59 22 0,0
18.09.2018 19:00:00 27,4 11,9 28,0 28,2 22,2 18,0 16 8 30 16 W 1013,8 49 60 0,0
18.09.2018 18:00:00 27,8 12,1 30,3 29,4 21,9 18,0 16 8 36 20 W 1013,8 39 59 0,0
18.09.2018 17:00:00 27,4 14,3 29,4 29,8 21,5 17,9 18 10 29 16 WSW 1013,8 25 57 0,0
18.09.2018 16:00:00 26,4 15,0 29,0 30,0 20,9 18,0 19 10 32 18 SW 1014,1 37 45 0,0
18.09.2018 15:00:00 27,0 14,8 30,7 30,8 20,3 17,9 16 9 31 17 SW 1014,2 28 58 0,0
18.09.2018 14:00:00 26,1 14,3 31,7 29,9 19,7 17,9 16 9 26 14 WSW 1014,8 18 60 0,0
18.09.2018 13:00:00 24,4 13,7 30,5 28,0 19,2 17,9 15 8 24 13 WSW 1015,3 25 60 0,0
18.09.2018 12:00:00 22,1 12,6 27,6 25,4 18,8 17,9 16 8 23 12 WSW 1015,7 25 60 0,0
18.09.2018 11:00:00 21,1 12,8 25,4 22,6 18,6 17,9 10 5 15 8 SW 1015,8 24 60 0,0
18.09.2018 10:00:00 19,4 11,9 22,3 19,5 18,6 17,9 8 4 14 7 S 1016,0 21 60 0,0
18.09.2018 09:00:00 18,3 10,4 19,4 16,9 18,7 17,9 4 2 10 5 SSW 1015,9 39 60 0,0
18.09.2018 08:00:00 17,0 8,7 15,4 15,3 18,9 17,9 5 3 8 5 ENE 1015,9 47 26 0,0
18.09.2018 07:00:00 17,1 8,4 12,4 15,4 19,2 17,9 7 4 8 4 NE 1015,5 62 0 0,0
18.09.2018 06:00:00 17,8 8,2 12,8 15,9 19,4 17,9 6 3 8 5 ENE 1015,4 61 0 0,0
18.09.2018 05:00:00 18,4 8,2 13,7 16,3 19,7 17,9 8 4 9 5 NE 1015,3 61 0 0,0
18.09.2018 04:00:00 18,9 8,1 15,1 16,7 19,9 17,9 5 3 11 6 ENE 1015,5 63 0 0,0
18.09.2018 03:00:00 19,0 8,1 14,8 17,2 20,2 17,9 8 5 13 7 ENE 1015,7 70 0 0,0
18.09.2018 02:00:00 19,3 8,2 15,5 17,7 20,4 17,9 10 5 16 9 NE 1015,8 70 0 0,0
18.09.2018 01:00:00 19,5 8,4 15,9 18,3 20,7 17,9 10 5 14 8 NE 1016,1 66 0 0,0
18.09.2018 00:00:00 20,0 8,5 16,4 18,9 21,0 18,0 10 5 15 8 ENE 1016,2 66 0 0,0
17.09.2018 23:00:00 20,3 8,0 17,0 19,6 21,3 18,0 10 5 15 8 ENE 1016,3 67 0 0,0
17.09.2018 22:00:00 20,8 7,7 17,2 20,5 21,6 18,0 9 5 12 7 ENE 1016,4 70 0 0,0
17.09.2018 21:00:00 21,8 7,0 18,1 21,8 21,7 18,0 8 5 10 5 ENE 1016,3 70 0 0,0
17.09.2018 20:00:00 22,9 6,5 18,4 23,7 21,7 18,0 6 3 8 5 E 1016,0 70 28 0,0
17.09.2018 19:00:00 24,6 4,9 24,1 26,2 21,5 18,0 5 3 10 6 S 1016,0 70 60 0,0
17.09.2018 18:00:00 25,4 5,1 27,3 28,3 21,2 18,0 9 5 20 11 S 1016,3 59 60 0,0
17.09.2018 17:00:00 26,3 5,4 29,4 29,5 20,7 18,0 6 3 21 11 SW 1016,6 47 60 0,0
17.09.2018 16:00:00 25,9 6,9 30,1 30,2 20,1 18,0 11 6 24 13 S 1017,2 29 60 0,0
17.09.2018 15:00:00 24,7 8,1 30,3 29,9 19,4 18,0 14 7 26 14 SSE 1018,0 25 60 0,0
17.09.2018 14:00:00 25,0 9,0 28,6 28,9 18,7 18,0 13 7 24 13 S 1018,5 29 60 0,0
17.09.2018 13:00:00 23,4 9,0 29,2 27,0 18,2 18,0 10 6 21 11 S 1019,2 30 60 0,0
17.09.2018 12:00:00 21,2 9,9 26,8 23,7 17,8 18,0 6 4 13 7 ESE 1020,0 29 60 0,0
17.09.2018 11:00:00 19,6 10,0 24,4 21,3 17,6 18,0 5 3 10 5 S 1020,6 34 60 0,0
17.09.2018 10:00:00 16,4 10,2 19,7 17,8 17,6 18,0 5 3 8 4 ESE 1021,0 24 60 0,0
17.09.2018 09:00:00 13,8 9,4 15,6 14,9 17,8 18,0 5 3 8 5 E 1021,4 28 60 0,0
17.09.2018 08:00:00 13,2 9,1 12,1 13,3 18,0 18,0 7 4 12 6 ENE 1021,4 25 22 0,0
17.09.2018 07:00:00 14,2 9,6 8,8 13,5 18,3 18,0 4 2 9 5 ENE 1021,1 30 0 0,0
17.09.2018 06:00:00 14,7 9,2 10,2 14,0 18,6 18,0 8 4 10 5 NE 1020,8 41 0 0,0
17.09.2018 05:00:00 14,3 8,7 10,2 14,4 18,8 18,0 7 4 9 5 ENE 1020,8 45 0 0,0
17.09.2018 04:00:00 15,9 9,2 10,8 14,8 19,1 18,0 6 3 8 4 NE 1020,5 46 0 0,0
17.09.2018 03:00:00 14,3 8,6 10,0 15,3 19,4 18,0 5 3 6 3 E 1020,8 55 0 0,0
17.09.2018 02:00:00 16,4 8,8 11,2 15,9 19,7 18,0 6 3 7 4 ENE 1020,8 54 0 0,0
17.09.2018 01:00:00 16,9 8,9 12,0 16,6 20,0 18,0 6 3 7 4 ENE 1020,8 58 0 0,0
17.09.2018 00:00:00 17,2 8,8 12,2 17,3 20,4 18,0 4 2 9 5 ENE 1020,6 57 0 0,0
16.09.2018 23:00:00 17,9 8,8 14,3 18,2 20,7 18,0 6 4 9 5 ENE 1020,7 59 0 0,0
16.09.2018 22:00:00 19,0 8,7 13,2 19,2 20,9 18,0 0 0 6 3 N 1020,5 61 0 0,0
16.09.2018 21:00:00 19,2 8,7 14,3 20,8 21,1 18,0 3 2 8 4 E 1020,3 64 0 0,0
16.09.2018 20:00:00 20,9 8,4 18,5 22,8 21,1 18,0 7 4 12 6 SSW 1019,6 61 5 0,0
16.09.2018 19:00:00 22,0 8,6 21,8 25,1 20,9 18,0 9 5 14 7 SSE 1019,1 56 59 0,0
16.09.2018 18:00:00 23,0 7,0 25,2 27,1 20,5 18,0 5 3 18 10 SE 1018,9 70 60 0,0
16.09.2018 17:00:00 24,1 7,9 27,8 28,8 20,0 18,0 7 4 21 12 S 1019,0 61 60 0,0
16.09.2018 16:00:00 23,3 7,7 28,8 29,3 19,4 18,0 8 4 21 11 SSE 1019,5 22 60 0,0
16.09.2018 15:00:00 22,7 8,1 27,7 28,6 18,7 18,0 11 6 24 13 SE 1020,1 17 60 0,0
16.09.2018 14:00:00 21,0 8,3 27,1 27,4 18,1 18,0 9 5 25 14 E 1021,0 26 60 0,0
16.09.2018 13:00:00 20,4 8,3 27,0 25,3 17,6 18,0 12 6 23 12 E 1021,6 25 60 0,0
16.09.2018 12:00:00 19,7 7,6 25,0 22,5 17,2 18,0 15 8 24 13 E 1022,3 20 60 0,0
16.09.2018 11:00:00 17,5 7,3 21,5 19,5 17,0 18,0 13 7 22 12 E 1023,0 28 60 0,0
16.09.2018 10:00:00 15,4 7,0 18,6 16,5 17,0 18,0 14 8 23 12 ENE 1023,4 24 60 0,0
16.09.2018 09:00:00 13,6 6,6 15,2 14,0 17,2 18,0 16 9 22 12 NE 1023,4 16 60 0,0
16.09.2018 08:00:00 12,3 6,5 11,6 12,6 17,4 18,0 14 8 19 11 ENE 1023,5 24 28 0,0
16.09.2018 07:00:00 11,6 6,5 9,6 12,6 17,7 18,0 14 7 19 10 NE 1023,8 70 0 0,0
16.09.2018 06:00:00 12,0 6,6 9,8 13,0 17,9 18,0 13 7 19 10 ENE 1024,1 70 0 0,0
16.09.2018 05:00:00 12,6 6,8 10,5 13,4 18,2 18,0 14 8 21 11 NE 1024,4 70 0 0,0

tt = Température de l'air
td = dewpoint
tt 5cm = Température de l'air 5cm
tt -5cm = Température de l'air -5cm
tt -20cm = Température de l'air -20cm
tt -100cm = Température de l'air -100cm
ff = Vitesse du vent
fx = gusts
dd = Direction du vent
ppp = reduced air pressure
vv = visibility
sd = Ensoleillement
rr = Quantités de précipitations

stations d'obs. à proximité